Location: Complexul Astronomic Baia Mare
(47.6577°N, 23.5639°E)
Time: 17:52:06
(UTC+03:00)

ISS - Pass Details

Date: 10 May 2017
Orbit: 402 x 409 km, 51.6° (Epoch: 24 May)

Event Time Altitude Azimuth Distance (km) Brightness Sun altitude
Exits shadow 03:55:08 19° 153° (SSE) 1,026 -2.0 -16.3°
Maximum altitude 03:55:40 20° 139° (SE) 1,000 -2.0 -16.2°
Drops below altitude 10° 03:58:09 10° 90° (E) 1,461 -0.5 -16.0°
Sets 04:00:34 0° 73° (ENE) 2,323 1.0 -15.7°
